Tracking 25612 objects as of 20-May-2022
HD Live streaming from Space Station
objects crossing your sky now

COSMOS 2251 DEB

Track COSMOS 2251 DEB now!
10-day predictions


NORAD ID: 33993
Int'l Code: 1993-036GC
Perigee: 653.0 km
Apogee: 696.4 km
Inclination: 74.0 °
Period: 98.1 minutes
Semi major axis: 7045 km
RCS: 0.021 m2 (small)
Launch date: June 16, 1993
Source: Commonwealth of Independent States (former USSR) (CIS)
Launch site: PLESETSK MISSILE AND SPACE COMPLEX (PKMTR)

Note: This is SATELLITE DEBRIS
aabbcc
Your satellite tracking list
Your tracking list is empty




NASA's NSSDC Master Catalog

Two Line Element Set (TLE):
1 33993U 93036GC  22139.26593275  .00010695  00000-0  18567-2 0  9994
2 33993  74.0179 203.0474 0030729 294.9329  64.8648 14.67968587704206
Source of the keplerian elements: AFSPC